Weather observations for the past three days for
Enid, Enid Woodring Regional Airport
Imperial (Metric)
Date Time (cdt) Wind (mph) Vis. (mi.) Weather Sky Cond. Temperature (ºF) Relative Humidity Wind Chill (°F) Heat Index (°F) Pressure Precipitation (in)
Air Dwpt 6 hour altimeter (in) sea level (mb) 1 hr 3 hr 6 hr
Max. Min.
04 16:55 S 21 G 26 10.00 Overcast and Breezy OVC150 82.4 59 45% 82 29.57 0.0
04 15:50 S 21 G 29 10.00 Overcast and Breezy OVC150 82.4 57.2 42% 82 29.59 0.0
04 14:55 S 23 G 31 10.00 Mostly Cloudy and Breezy BKN160 82.4 57.2 42% 82 29.61 0.0
04 13:45 S 24 G 29 10.00 Mostly Cloudy and Breezy BKN160 80.6 55.4 42% 81 29.64 0.0
04 12:45 S 22 G 29 10.00 Mostly Cloudy and Breezy BKN160 78.8 55.4 45% 79 29.66 0.0
04 11:45 S 23 G 30 10.00 Mostly Cloudy and Breezy BKN160 77 53.6 44% 78 29.67 0.0
04 10:45 S 22 G 29 10.00 Mostly Cloudy and Breezy BKN160 75.2 53.6 47% 78 29.69 0.0
04 09:45 S 20 G 26 10.00 Fair CLR 71.6 51.8 50% 29.7 0.0
04 08:45 S 21 G 26 10.00 Fair and Breezy CLR 66.2 50 56% 29.72 0.0
04 07:45 S 9 10.00 Fair CLR 60.8 48.2 63% 29.72 0.0
04 05:55 S 9 10.00 Fair CLR 57.2 46.4 67% 29.72 0.0
04 05:35 S 8 10.00 Fair CLR 57.2 46.4 67% 29.73 0.0
04 05:15 S 9 10.00 Fair CLR 57.2 46.4 67% 29.74 0.0
04 04:55 S 7 10.00 Fair CLR 59 46.4 63% 29.74 0.0
04 04:35 S 8 10.00 Fair CLR 59 46.4 63% 29.75 0.0
04 04:15 S 9 10.00 Fair CLR 60.8 46.4 59% 29.75 0.0
04 03:55 S 9 10.00 Fair CLR 60.8 46.4 59% 29.76 0.0
04 03:35 S 9 10.00 Fair CLR 60.8 46.4 59% 29.76 0.0
04 03:15 S 8 10.00 Fair CLR 60.8 46.4 59% 29.77 0.0
04 02:55 S 9 10.00 Fair CLR 62.6 46.4 56% 29.77 0.0
04 02:35 S 10 10.00 Fair CLR 62.6 46.4 56% 29.77 0.0
04 02:15 S 10 10.00 Fair CLR 62.6 44.6 52% 29.78 0.0
04 01:55 S 12 10.00 Fair CLR 64.4 44.6 49% 29.79 0.0
04 01:15 S 12 10.00 Fair CLR 64.4 44.6 49% 29.8 0.0
04 00:55 S 16 G 21 10.00 Fair CLR 66.2 44.6 46% 29.8 0.0
04 00:35 S 16 G 22 10.00 Fair CLR 68 44.6 43% 29.8 0.0
04 00:15 S 13 G 21 10.00 Fair CLR 68 44.6 43% 29.81 0.0
03 23:55 S 12 G 21 10.00 Fair CLR 68 44.6 43% 29.81 0.0
03 23:35 S 13 10.00 Fair CLR 68 46.4 46% 29.82 0.0
03 23:15 S 13 G 20 10.00 Fair CLR 68 46.4 46% 29.82 0.0
03 22:55 S 13 G 21 10.00 Fair CLR 68 46.4 46% 29.82 0.0
03 22:35 S 15 G 21 10.00 Fair CLR 69.8 46.4 43% 29.82 0.0
03 22:15 S 16 G 20 10.00 Fair CLR 69.8 44.6 40% 29.82 0.0
03 21:55 S 15 G 20 10.00 Fair CLR 69.8 44.6 40% 29.82 0.0
03 21:35 S 14 10.00 Fair CLR 69.8 44.6 40% 29.81 0.0
03 21:15 S 12 10.00 Fair CLR 69.8 44.6 40% 29.81 0.0
03 20:55 S 14 10.00 Partly Cloudy SCT200 71.6 44.6 38% 29.81 0.0
03 19:50 S 15 10.00 Partly Cloudy SCT200 77 42.8 30% 78 29.8 0.0
03 18:50 S 17 G 30 10.00 Partly Cloudy SCT200 82.4 41 23% 80 29.81 0.0
03 17:55 SW 24 G 31 10.00 Partly Cloudy and Breezy SCT200 84.2 41 22% 82 29.82 0.0
03 16:54 SW 17 G 26 10.00 Partly Cloudy SCT200 84.2 42.8 23% 82 29.84 0.0
03 15:45 SW 21 G 30 10.00 Fair and Breezy CLR 84.2 39.2 20% 81 29.87 0.0
03 14:45 SW 18 G 30 10.00 Fair CLR 84.2 39.2 20% 81 29.9 0.0
03 13:45 SW 16 G 28 10.00 Fair CLR 84.2 39.2 20% 81 29.93 0.0
03 12:45 SW 17 G 24 10.00 Fair CLR 82.4 37.4 20% 80 29.96 0.0
03 11:45 SW 10 10.00 Fair CLR 80.6 46.4 30% 80 29.99 0.0
03 10:45 SW 12 10.00 Fair CLR 73.4 46.4 38% 30.01 0.0
03 09:45 SW 12 10.00 Fair CLR 64.4 48.2 56% 30.01 0.0
03 08:50 S 9 10.00 Fair CLR 57.2 50 77% 30.01 0.0
03 07:45 S 6 10.00 Fair CLR 48.2 44.6 87% 46 30.02 0.0
03 06:45 S 6 10.00 Fair CLR 42.8 39.2 87% 40 30.01 0.0
03 05:55 S 5 10.00 Fair CLR 44.6 42.8 93% 43 30.01 0.0
03 05:35 S 5 10.00 Fair CLR 44.6 42.8 93% 43 30.02 0.0
03 05:15 S 3 10.00 Fair CLR 44.6 42.8 93% 30.02 0.0
03 04:55 Calm 10.00 Fair CLR 44.6 44.6 100% 30.03 0.0
03 04:35 Calm 10.00 Fair CLR 44.6 44.6 100% 30.04 0.0
03 04:15 Calm 10.00 Fair CLR 44.6 44.6 100% 30.04 0.0
03 03:55 Calm 10.00 Fair CLR 44.6 42.8 93% 30.05 0.0
03 03:35 Calm 10.00 Fair CLR 44.6 42.8 93% 30.06 0.0
03 03:15 S 3 10.00 Fair CLR 44.6 44.6 100% 30.06 0.0
03 02:55 Calm 10.00 Fair CLR 44.6 42.8 93% 30.06 0.0
03 02:35 Calm 10.00 Fair CLR 44.6 44.6 100% 30.07 0.0
03 02:15 S 3 10.00 Fair CLR 46.4 44.6 93% 30.08 0.0
03 01:55 Calm 10.00 Fair CLR 44.6 44.6 100% 30.09 0.0
03 01:35 S 3 10.00 Fair CLR 46.4 44.6 93% 30.09 0.0
03 01:15 S 3 10.00 Fair CLR 46.4 44.6 93% 30.09 0.0
03 00:55 Calm 10.00 Fair CLR 46.4 44.6 93% 30.09 0.0
03 00:35 Calm 10.00 Fair CLR 48.2 44.6 87% 30.09 0.0
03 00:15 Calm 10.00 Fair CLR 48.2 44.6 87% 30.09 0.0
02 23:55 S 3 10.00 Fair CLR 50 44.6 82% 30.09 0.0
02 23:35 S 3 10.00 Fair CLR 50 44.6 82% 30.09 0.0
02 23:15 S 3 10.00 Fair CLR 50 44.6 82% 30.09 0.0
02 22:55 S 3 10.00 Fair CLR 50 44.6 82% 30.09 0.0
02 22:35 SE 7 10.00 Fair CLR 53.6 44.6 72% 30.09 0.0
02 22:15 E 8 10.00 Fair CLR 53.6 44.6 72% 30.08 0.0
02 21:55 SE 8 10.00 Fair CLR 53.6 44.6 72% 30.08 0.0
02 21:35 SE 8 10.00 Fair CLR 53.6 44.6 72% 30.08 0.0
02 21:15 SE 7 10.00 Fair CLR 55.4 46.4 72% 30.07 0.0
02 20:45 E 9 10.00 Fair CLR 57.2 44.6 63% 30.07 0.0
02 19:45 SE 5 10.00 Fair CLR 64.4 46.4 52% 30.07 0.0
02 18:45 E 5 10.00 Fair CLR 69.8 44.6 40% 30.08 0.0
02 17:45 Calm 10.00 A Few Clouds FEW120 71.6 42.8 36% 30.09 0.0
02 16:45 Calm 10.00 Partly Cloudy SCT120 71.6 39.2 31% 30.1 0.0
02 15:45 Calm 10.00 Partly Cloudy SCT120 71.6 42.8 36% 30.12 0.0
02 14:45 N 5 10.00 Partly Cloudy SCT120 69.8 42.8 38% 30.13 0.0
02 13:45 NE 5 10.00 Partly Cloudy SCT120 68 42.8 40% 30.15 0.0
02 11:45 Calm 10.00 Partly Cloudy SCT085 64.4 48.2 56% 30.18 0.0
02 10:45 Calm 10.00 Mostly Cloudy BKN095 59 50 72% 30.18 0.0
02 09:45 Calm 10.00 Light Drizzle SCT044 BKN085 55.4 51.8 88% 30.17 0.0
02 08:45 Calm 10.00 Light Drizzle SCT065 BKN100 51.8 51.8 100% 30.17 0.0
02 07:50 Calm 10.00 Mostly Cloudy SCT080 BKN110 50 48.2 94% 30.15 0.0
02 06:55 Calm 10.00 Partly Cloudy SCT110 44.6 42.8 93% 30.13 0.0
02 05:55 SE 5 10.00 Fair CLR 46.4 44.6 93% 45 30.1 0.0
02 05:35 SE 8 10.00 Fair CLR 46.4 44.6 93% 43 30.1 0.0
02 05:15 SE 8 10.00 Fair CLR 48.2 46.4 94% 45 30.1 0.0
02 04:55 E 12 10.00 Fair CLR 48.2 46.4 94% 44 30.11 0.0 0.01
02 04:35 E 13 10.00 Fair CLR 50 46.4 88% 46 30.12 0.0 0.01
02 04:15 E 10 10.00 Light Rain SCT050 SCT070 BKN090 50 48.2 94% 46 30.12 0.0
02 03:55 E 12 10.00 Mostly Cloudy SCT070 BKN085 BKN120 51.8 46.4 82% 30.13 0.0
02 03:35 E 13 G 21 10.00 Mostly Cloudy BKN070 BKN110 53.6 44.6 72% 30.11 0.0
02 03:15 NE 12 10.00 Overcast BKN070 OVC080 51.8 46.4 82% 30.13 0.0
02 02:55 NE 10 10.00 Mostly Cloudy BKN080 BKN100 BKN120 46.4 46.4 100% 42 30.11 0.0
02 02:35 Calm 10.00 Partly Cloudy SCT120 48.2 48.2 100% 30.09 0.0
02 02:15 Calm 10.00 Partly Cloudy SCT120 46.4 46.4 100% 30.09 0.0
02 01:55 Calm 10.00 Partly Cloudy SCT090 46.4 46.4 100% 30.09 0.0
02 01:35 Calm 10.00 Partly Cloudy SCT090 50 46.4 88% 30.09 0.0
02 01:15 Calm 10.00 Mostly Cloudy BKN090 50 46.4 88% 30.09 0.0
02 00:55 Calm 10.00 Mostly Cloudy BKN090 50 48.2 94% 30.09 0.0
02 00:35 Calm 10.00 Mostly Cloudy SCT080 BKN110 51.8 48.2 88% 30.09 0.0
02 00:15 Calm 10.00 Mostly Cloudy BKN090 BKN110 53.6 48.2 82% 30.09 0.0
01 23:55 Calm 10.00 Overcast OVC090 53.6 46.4 77% 30.09 0.0
01 23:35 Calm 10.00 Overcast OVC090 53.6 46.4 77% 30.08 0.0
01 23:15 Calm 10.00 Overcast OVC090 53.6 48.2 82% 30.09 0.0
01 22:55 Calm 10.00 Overcast OVC090 53.6 46.4 77% 30.09 0.0
01 22:35 Calm 10.00 Overcast BKN100 OVC120 53.6 46.4 77% 30.09 0.0
01 22:15 Calm 10.00 Overcast OVC110 53.6 44.6 72% 30.08 0.0
01 21:55 S 3 10.00 Partly Cloudy SCT120 51.8 44.6 77% 30.08 0.0
01 21:35 Calm 10.00 Fair CLR 55.4 44.6 67% 30.07 0.0
01 21:15 SE 3 10.00 Fair CLR 55.4 44.6 67% 30.06 0.0
01 20:45 S 5 10.00 Mostly Cloudy BKN200 57.2 42.8 59% 30.05 0.0
01 19:45 Calm 10.00 Mostly Cloudy BKN200 64.4 42.8 46% 30.03 0.0
01 18:50 NW 6 10.00 Mostly Cloudy BKN200 69.8 37.4 31% 30.02 0.0
01 17:45 Calm 10.00 Partly Cloudy SCT120 69.8 37.4 31% 30.02 0.0
Date Time (cdt) Wind (mph) Vis. (mi.) Weather Sky Cond. Air Dwpt Max. Min. Relative Humidity Wind Chill (°F) Heat Index (°F) altimeter (in) sea level (mb) 1 hr 3 hr 6 hr
6 hour
Temperature (ºF) Pressure Precipitation (in)